Dewpoint
22 21 21 21 22 23 23 23 24 25 26 28 29 31 30 35 34 31 36 43 39 33 28 28 32 42 41 37 42 39 36 37 44 47 44 38 35 47 52 60 62 63 63 67 68 68 66 65 64 65 65 66 67 68 68 68 66 68 70 70 71 71 72 73 74 75 75 75 74 74 74 75 74 73 72 72 72 72 73 72 70 70 70 70 72 73 74
21 21 20 20 20 21 22 23 24 25 25 26 27 28 30 31 37 38 38 40 37 33 33 35 41 45 41 39 42 40 42 46 54 53 50 42 38 31 42 57 60 65 65 67 69 69 69 66 66 64 65 67 66 66 67 67 68 68 69 70 71 71 72 73 74 75 75 76 75 75 75 75 75 74 73 73 73 72 73 73 73 73 72 72 71 72 73
25 24 23 21 20 21 22 20 21 23 24 25 26 26 27 31 31 32 32 37 38 32 40 52 51 49 43 42 39 48 53 55 55 55 51 48 52 53 55 48 57 62 65 66 68 69 69 67 66 65 66 67 66 65 67 67 68 68 69 71 72 72 73 74 74 76 76 76 76 75 75 75 76 75 75 74 74 74 74 74 74 75 73 72 71 71 72
22 22 21 19 20 21 21 21 21 23 24 25 25 27 29 31 34 39 38 37 34 34 50 53 51 47 45 41 50 54 57 59 60 61 59 60 62 61 61 63 58 55 61 64 67 68 66 65 65 65 67 66 66 65 67 67 66 67 69 70 71 73 73 74 75 76 76 76 76 76 76 76 76 76 75 75 75 75 74 74 75 74 73 73 73 72 71
17 18 21 21 22 20 20 22 22 24 25 26 26 26 46 46 44 39 39 36 44 53 54 51 52 52 52 50 51 59 61 63 61 62 62 62 63 64 66 66 67 62 52 58 66 66 65 64 64 64 66 65 67 67 69 69 68 67 69 70 72 73 73 74 75 76 76 76 76 76 76 76 76 76 76 75 75 75 74 75 75 75 75 74 74 73 72
21 21 22 23 23 20 20 27 26 25 24 26 27 36 48 49 45 41 46 49 51 52 51 52 54 54 57 60 61 60 63 63 64 63 63 64 64 65 65 67 67 67 63 56 59 66 68 66 62 64 67 65 67 67 69 70 69 70 71 72 73 73 74 75 75 76 76 76 76 76 76 76 76 76 76 76 76 75 75 75 75 75 74 75 75 75 74
20 22 26 26 23 21 29 39 38 33 27 26 29 47 47 47 47 47 48 48 49 50 51 52 54 56 57 58 59 58 59 63 63 64 63 65 65 66 67 67 67 68 64 59 57 63 64 63 64 65 65 66 67 68 69 69 70 71 71 72 73 73 74 75 75 76 76 76 76 76 76 76 76 76 76 76 76 75 74 74 75 75 74 75 75 75 74
24 22 23 23 22 25 38 38 40 44 39 32 45 46 46 46 45 47 47 48 49 51 51 52 54 56 56 57 59 59 60 62 64 63 64 65 65 65 66 68 69 71 66 59 53 58 65 63 62 64 65 65 66 67 69 69 70 71 72 73 73 74 74 75 75 75 75 76 76 76 76 76 76 76 76 76 76 75 74 73 74 74 74 74 74 74 74
21 20 22 23 31 27 35 37 41 40 44 47 44 43 45 47 47 47 48 49 49 49 50 51 54 56 56 57 59 55 62 63 63 63 64 65 65 66 67 67 68 70 68 62 57 60 65 63 61 63 64 64 65 66 68 69 70 71 72 73 73 74 73 74 74 74 74 74 75 75 75 75 75 75 76 76 76 76 74 73 72 72 74 73 74 73 73
23 21 23 25 25 25 29 42 42 43 44 46 46 47 46 47 46 47 48 48 48 49 49 51 54 56 57 56 54 60 59 60 61 63 64 65 66 66 66 68 68 67 64 62 61 60 65 64 63 65 66 65 67 69 69 70 70 71 71 71 73 74 73 73 73 74 74 74 75 75 76 75 75 74 74 75 75 75 74 72 70 71 72 73 74 73 72
23 23 23 24 25 28 44 42 43 44 44 44 47 44 44 46 46 46 46 46 47 47 48 50 55 57 55 52 56 58 58 59 60 62 64 65 65 66 67 67 67 62 63 64 61 64 67 64 66 68 68 67 66 70 70 70 70 70 70 71 72 73 73 73 73 73 73 74 74 74 75 75 74 74 74 75 74 75 73 73 72 73 72 73 72 73 71
23 24 23 23 29 28 42 45 42 42 46 45 47 39 39 45 45 46 46 46 46 46 48 50 53 53 55 54 55 55 56 58 60 63 64 66 66 66 66 67 69 68 66 67 64 65 64 66 67 69 67 67 68 70 70 68 68 69 70 71 72 72 72 73 73 73 73 75 75 74 75 75 75 74 74 74 74 74 74 73 72 71 71 72 72 72 72
24 25 24 26 30 39 45 44 42 44 46 46 42 36 44 46 46 46 47 46 46 47 47 48 49 50 51 51 51 52 54 58 60 63 65 66 66 67 66 67 71 67 66 66 65 64 66 68 67 68 67 67 68 70 70 70 69 68 70 72 72 73 73 72 72 73 73 74 74 73 74 74 74 74 73 73 73 74 72 72 72 72 71 71 71 72 72
21 22 24 25 29 44 46 45 46 47 47 41 40 46 48 46 44 44 45 45 46 47 47 47 48 48 47 48 48 49 52 59 62 63 64 65 66 66 67 69 70 69 65 67 66 65 68 68 68 67 68 69 71 71 71 70 70 69 71 72 73 73 74 72 72 72 72 74 74 72 74 75 75 75 74 74 73 73 72 73 74 74 74 73 72 72 73
22 25 24 26 26 40 44 45 44 46 45 44 46 49 46 45 45 45 45 44 45 47 45 46 46 45 46 45 46 49 52 60 61 61 63 65 65 67 68 68 68 68 68 66 65 65 66 67 68 68 68 71 72 72 71 72 71 71 71 72 73 74 74 73 73 73 73 74 74 72 73 75 75 75 75 74 75 75 75 74 74 74 75 75 74 73 74
22 23 25 28 39 42 45 44 41 44 45 47 47 46 45 44 45 46 45 44 44 46 47 45 44 44 43 44 46 48 51 58 59 60 62 64 65 66 67 67 69 67 70 70 65 65 66 68 68 69 70 71 72 72 73 73 72 71 73 73 74 74 74 74 73 73 73 73 74 74 75 75 75 76 75 75 75 75 75 74 73 74 73 73 73 72 72
35 31 37 41 41 39 42 44 44 45 47 47 47 44 45 44 43 46 47 46 46 47 47 47 45 42 42 43 45 47 49 56 59 60 61 63 64 65 67 68 69 68 68 70 69 67 67 68 69 70 70 72 73 73 74 74 73 72 74 74 75 75 74 74 74 74 74 75 75 75 75 75 76 75 76 76 75 76 76 74 73 73 72 73 73 73 73
40 39 40 42 40 39 40 42 43 44 45 47 48 48 44 44 44 45 45 46 46 49 47 47 49 46 43 44 45 48 48 53 58 60 61 62 63 64 66 68 69 69 69 69 71 72 72 71 71 71 72 73 74 74 74 74 74 74 75 76 76 75 75 74 75 74 74 74 75 75 75 75 75 76 76 75 74 75 74 73 73 73 73 73 73 74 73
35 34 41 42 40 40 41 42 43 45 46 47 46 46 49 45 45 45 46 46 47 46 45 45 48 48 46 47 47 49 49 50 58 59 60 61 63 64 65 68 69 70 70 70 70 71 72 72 72 70 71 71 73 74 75 74 74 76 76 76 76 75 75 74 75 75 75 73 73 74 75 74 74 75 75 75 75 75 73 72 73 73 73 73 73 72 73
35 37 40 41 40 42 44 46 46 45 45 46 48 47 47 47 47 46 46 46 46 47 48 46 47 47 44 45 47 49 49 51 57 59 60 61 62 63 65 67 69 68 69 70 71 71 71 72 74 74 74 75 76 76 75 73 73 75 75 76 75 75 75 74 74 75 74 75 74 73 74 74 72 73 74 74 73 74 74 73 72 72 73 72 72 72 72
39 41 42 40 40 42 45 46 46 45 45 45 45 47 46 47 46 46 46 45 46 44 45 49 47 48 47 47 47 48 52 53 55 58 60 62 62 63 64 66 68 68 68 68 70 70 71 73 73 73 74 74 75 75 74 74 74 75 75 75 75 75 74 74 74 75 75 74 73 73 74 75 74 78 78 73 74 74 75 75 74 72 72 72 73 73 72
36 37 39 40 37 38 41 42 43 46 45 45 45 45 47 46 46 46 46 46 47 46 47 46 46 46 48 48 48 48 50 54 56 57 59 61 63 62 63 65 65 67 68 68 68 69 70 72 73 73 74 75 75 75 76 77 77 77 76 75 75 75 75 75 75 75 74 74 73 73 74 74 74 67 50 45 54 71 75 62 56 58 59 74 75 75 71
35 39 40 41 41 42 41 43 45 46 45 45 45 46 47 48 47 47 47 46 46 48 47 47 47 48 49 49 47 48 48 50 54 57 59 60 61 62 62 63 63 64 66 68 68 68 69 70 71 72 73 74 75 76 77 78 77 76 77 75 74 74 74 75 75 75 75 75 75 75 75 75 76 73 72 67 43 42 48 53 49 40 40 41 44 51 68
40 41 42 42 42 42 42 43 44 45 47 46 46 46 48 49 50 48 48 48 47 47 46 47 48 48 48 46 45 48 49 50 53 54 56 60 62 62 61 62 63 63 64 65 67 68 68 69 69 71 71 72 73 74 76 77 78 78 77 76 75 75 75 76 76 76 75 76 76 76 75 76 77 75 74 74 71 49 42 44 43 41 41 41 40 42 49
40 43 43 43 42 42 43 46 45 46 48 50 48 48 48 49 50 49 49 48 49 49 49 49 49 49 48 46 46 48 49 49 52 54 56 58 58 61 61 63 63 63 63 64 65 66 67 68 69 70 70 71 72 72 74 75 77 77 77 77 76 76 76 76 75 76 75 76 76 76 75 75 76 76 74 73 73 71 61 44 42 43 43 42 42 41 41
44 43 43 42 42 42 43 44 45 46 46 48 49 48 49 50 51 50 49 50 50 49 49 51 50 50 49 49 47 47 48 48 52 53 53 53 54 55 58 62 64 63 63 63 64 65 66 67 68 69 69 69 70 71 71 73 75 76 77 76 76 76 76 76 76 75 74 74 74 74 74 74 74 74 73 72 72 72 70 68 66 54 48 44 43 45 41
44 44 42 41 40 40 42 42 44 46 46 47 49 48 48 48 50 52 50 50 50 50 51 52 52 51 49 50 49 49 49 47 49 52 52 52 52 54 55 58 60 63 64 62 63 64 65 66 67 68 69 70 70 70 71 73 73 74 75 75 75 76 76 76 75 75 75 75 74 75 75 75 73 72 73 73 73 72 71 71 71 67 62 58 49 42 53
43 44 43 40 40 41 42 44 45 46 47 47 49 48 46 47 49 49 49 48 48 50 50 53 53 51 51 50 50 49 48 47 48 50 53 53 52 54 56 57 57 58 61 62 62 63 64 65 65 66 67 68 69 70 68 71 72 72 72 72 72 72 74 74 74 74 75 76 76 76 75 75 75 72 72 73 72 71 70 69 66 62 58 57 56 50 45
40 41 44 44 45 44 44 45 44 44 45 47 49 49 45 45 46 47 48 48 48 49 50 50 50 51 51 52 52 51 50 48 49 51 52 55 56 54 55 56 57 59 60 60 61 62 63 63 64 64 65 67 67 68 68 69 70 70 70 69 69 70 72 73 73 74 75 75 76 76 72 73 75 74 73 73 71 72 68 66 63 62 60 60 60 59 57
40 41 41 41 42 42 42 43 43 44 44 46 47 47 46 45 45 46 46 49 48 48 49 50 50 50 52 51 50 50 51 52 51 51 52 53 55 58 56 57 58 59 59 59 60 60 61 62 63 63 64 65 65 67 66 68 68 70 69 68 67 66 68 69 73 74 75 74 73 70 73 74 74 73 72 72 71 67 65 63 63 62 62 62 60 61 60
39 40 41 42 42 42 42 42 43 43 44 45 46 48 46 45 45 45 45 47 48 48 49 50 50 51 50 49 50 51 53 54 53 55 55 57 56 58 58 59 57 58 58 58 59 60 61 61 61 62 63 63 63 65 67 67 67 67 67 68 67 63 61 62 65 71 71 71 71 71 72 72 71 71 69 68 67 66 65 64 64 64 63 63 62 62 61
38 39 41 41 41 41 41 42 42 43 44 45 46 48 49 47 44 45 44 44 46 47 47 47 48 48 50 52 52 53 54 52 54 56 57 58 57 57 58 58 59 59 59 59 59 59 60 61 61 62 63 63 63 63 65 66 67 66 66 66 66 66 64 62 66 67 68 69 69 69 69 70 69 69 68 67 65 64 65 65 64 64 64 63 63 63 63
38 38 39 40 40 40 41 42 42 43 44 45 46 47 48 50 49 44 45 45 44 46 47 47 49 50 52 54 54 54 56 56 57 56 56 56 57 57 57 58 59 59 59 59 59 59 59 59 60 62 62 62 62 63 62 64 65 65 65 65 65 65 65 63 62 66 67 66 67 68 67 67 67 66 65 65 65 64 64 64 65 64 63 63 63 64 63
39 39 41 41 42 42 42 42 42 43 45 46 47 47 47 48 50 50 45 46 44 45 47 49 50 52 53 54 55 55 54 55 55 55 55 55 56 57 56 57 58 59 60 59 58 58 58 59 60 60 61 61 62 60 61 62 64 65 65 65 65 64 65 63 63 64 64 64 64 64 65 65 65 64 63 64 63 63 63 63 62 61 60 60 59 59 53
40 40 41 41 42 42 42 43 44 44 45 45 46 47 47 48 48 50 52 51 51 50 51 51 51 52 53 53 54 54 54 53 52 52 53 54 54 55 57 57 57 58 58 58 56 56 57 58 58 58 60 60 60 59 60 62 63 63 64 64 63 63 63 62 62 62 61 61 61 61 61 61 61 61 61 61 61 61 61 61 60 60 59 59 58 58 56
40 40 40 41 42 43 43 43 43 44 45 45 46 47 46 47 48 49 49 50 51 52 52 52 52 52 52 52 51 51 52 52 52 52 52 53 54 55 54 54 54 54 55 55 55 55 56 56 59 58 59 59 58 59 59 59 61 61 62 63 62 61 60 60 60 60 60 59 59 58 58 58 58 58 59 59 59 59 59 58 58 58 58 57 57 57 57
41 40 40 41 42 43 43 43 43 43 44 45 46 46 46 47 48 48 49 49 49 50 50 50 50 50 50 50 50 50 51 51 52 53 54 54 54 53 53 53 53 53 53 53 54 55 56 56 57 59 59 58 58 58 58 59 60 61 61 60 60 59 58 58 58 58 58 58 57 57 56 56 55 56 56 55 55 56 56 55 55 56 56 56 56 55 55
42 41 41 41 42 42 43 43 43 44 43 43 44 46 47 46 46 47 47 48 49 49 49 49 49 49 50 50 49 49 49 50 51 51 51 52 52 52 51 51 51 52 52 52 54 55 56 56 57 57 57 58 58 57 57 57 59 59 58 58 58 58 57 56 56 55 56 56 56 55 55 54 54 53 53 53 53 52 52 52 52 51 51 52 52 53 53
43 42 41 40 41 41 42 42 42 43 43 43 43 44 45 45 45 45 45 46 47 48 48 48 48 48 48 48 48 48 49 49 50 49 50 50 51 50 50 51 51 52 53 54 55 55 55 55 55 55 55 56 56 56 56 56 56 56 56 57 56 55 55 54 54 54 54 54 53 53 53 52 52 51 51 50 50 51 51 50 50 50 49 49 49 49 48
42 43 42 40 39 41 41 41 42 42 43 43 43 43 44 44 44 44 44 45 46 47 47 47 47 47 47 47 47 47 47 48 48 49 49 49 50 49 49 49 51 52 52 53 54 54 54 54 54 54 55 55 55 55 55 55 55 54 54 54 53 53 53 53 52 52 51 51 51 52 51 51 50 50 50 50 49 50 49 49 49 49 48 48 48 48 48
43 43 42 41 40 40 40 40 41 42 43 43 42 43 43 43 43 44 44 44 45 45 45 46 46 46 47 47 47 47 47 47 47 48 48 48 48 48 47 47 50 50 50 50 52 53 53 53 53 53 53 54 54 54 54 53 53 53 53 51 50 50 49 49 49 49 49 49 49 49 49 49 49 48 49 48 48 48 47 47 47 48 48 48 48 48 47
43 44 41 40 40 40 40 40 40 41 42 42 43 42 43 43 43 42 43 43 44 44 44 45 46 46 45 46 46 47 47 47 47 47 48 48 48 47 47 48 51 50 51 51 50 50 50 51 52 52 52 53 53 52 52 52 52 52 50 50 50 50 50 49 49 49 49 48 47 47 47 47 47 47 47 46 46 46 46 46 46 46 46 46 47 47 47
43 44 42 41 41 40 39 40 40 40 40 41 42 42 42 42 43 42 42 42 42 43 44 44 45 45 45 44 45 45 46 47 47 47 47 47 48 49 49 49 49 49 50 50 48 47 47 48 49 50 50 50 51 51 50 51 51 51 50 49 49 49 48 48 48 48 49 49 49 49 49 48 48 47 47 46 47 46 47 46 46 46 47 47 46 47 47
45 44 42 42 41 41 41 40 40 39 38 40 42 42 41 41 42 42 42 42 42 42 42 43 43 43 44 44 44 44 46 46 47 47 46 46 46 48 48 48 48 48 50 50 48 46 45 46 46 47 50 49 49 48 48 48 50 49 49 49 49 47 48 47 47 46 45 45 46 45 45 46 46 46 46 46 45 46 46 46 46 45 46 46 46 46 46
43 42 44 45 43 42 41 41 42 41 40 40 41 41 41 41 41 41 42 42 42 42 43 42 43 44 43 43 44 45 46 47 47 46 45 45 45 47 49 49 48 47 48 49 49 48 46 45 45 48 47 47 47 47 45 45 45 45 46 46 45 45 46 46 45 46 46 45 44 44 45 45 45 44 43 43 43 43 43 42 43 43 44 43 44 44 44
44 45 46 44 45 46 45 43 42 42 40 39 39 39 41 41 41 41 41 41 41 41 41 42 42 43 43 44 44 43 43 45 46 46 47 47 46 47 48 48 48 48 48 49 48 48 49 49 48 47 46 45 45 42 41 43 43 43 44 44 45 45 44 45 45 46 46 46 45 45 46 46 46 45 45 45 45 44 45 44 44 43 43 43 43 43 43
43 44 44 44 45 46 46 44 43 41 40 39 39 39 40 40 40 39 40 41 41 40 41 42 42 42 43 43 44 45 41 41 43 45 46 46 46 46 47 47 48 48 48 47 47 48 49 49 48 47 47 47 46 41 39 38 38 38 39 39 39 39 39 39 40 40 40 41 42 42 42 42 40 40 42 43 44 41 42 41 40 41 41 41 41 42 42
40 41 41 44 45 46 46 45 42 38 39 40 40 39 39 40 40 40 39 39 39 40 40 41 41 42 42 42 42 43 45 44 41 43 44 45 45 45 46 46 46 47 47 48 47 47 47 46 46 46 47 47 48 44 40 37 36 36 36 37 37 37 37 37 38 39 39 39 39 38 38 38 38 38 39 38 37 38 38 39 42 39 37 37 37 37 37
38 40 43 44 43 43 42 40 42 43 39 42 42 40 41 41 39 39 39 39 38 38 37 39 40 41 42 43 43 42 44 44 45 45 45 44 44 44 45 47 48 47 47 45 45 47 47 46 45 45 45 45 46 47 46 43 41 40 39 38 38 37 38 38 38 38 37 38 38 38 38 37 36 36 36 36 36 37 37 36 35 35 35 35 35 36 35
39 39 40 40 39 41 40 41 44 43 45 42 41 39 38 36 35 36 37 36 37 37 36 37 38 39 39 39 40 42 44 44 44 44 44 44 44 45 45 45 45 46 47 48 47 47 47 46 45 45 43 41 41 41 42 43 43 42 42 41 41 40 40 40 40 40 39 39 38 38 38 38 37 38 38 37 37 36 36 36 35 37 40 36 35 34 35
40 39 39 42 39 41 42 43 41 45 45 42 40 39 39 37 35 37 36 36 36 36 36 36 37 38 39 39 39 40 41 41 43 43 42 43 43 44 45 44 44 44 44 44 47 47 47 48 46 44 42 41 40 40 40 41 40 41 41 41 41 41 41 41 41 40 40 40 39 38 38 37 37 37 37 37 37 37 37 37 37 37 37 37 36 36 37
34 39 40 40 41 41 41 41 44 44 44 40 40 40 38 36 35 34 35 38 36 35 35 37 37 38 38 38 39 39 40 40 41 41 42 42 40 39 41 42 42 42 41 42 42 44 46 48 47 45 45 43 40 39 41 41 40 39 40 41 41 40 41 40 40 40 40 39 39 39 39 38 38 37 37 37 37 37 37 36 36 36 37 37 37 37 37